LRIA Weather Reports


time (UTC)temp
C
wind
direction
speed
KPH
gust
KPH
rain 1hr
cm
rain 24hr
cm
rain mn
cm
humidity
%
barometer
mb
20260506154824 25 160 20.9 0.0 0.00 0.00 0.00 30 1012.0
20260506153323 25 160 20.9 0.0 0.00 0.00 0.00 30 1012.0
20260506151823 26 160 14.5 0.0 0.00 0.00 0.00 30 1012.0
20260506150329 26 160 14.5 0.0 0.00 0.00 0.00 30 1012.0
20260506144823 26 190 12.9 0.0 0.00 0.00 0.00 28 1012.0
20260506143335 26 190 12.9 0.0 0.00 0.00 0.00 28 1012.0
20260506141823 27 12.9 0.0 0.00 0.00 0.00 30 1012.0
20260506140440 27 12.9 0.0 0.00 0.00 0.00 30 1012.0
20260506134848 26 140 17.7 0.0 0.00 0.00 0.00 28 1012.0
20260506133323 26 140 17.7 0.0 0.00 0.00 0.00 28 1012.0
20260506131823 27 170 14.5 0.0 0.00 0.00 0.00 26 1012.0
20260506130332 27 170 14.5 0.0 0.00 0.00 0.00 26 1012.0
20260506124824 27 180 11.3 0.0 0.00 0.00 0.00 26 1013.0
20260506123323 27 180 11.3 0.0 0.00 0.00 0.00 26 1013.0
20260506121823 26 9.7 0.0 0.00 0.00 0.00 28 1013.0
20260506120323 26 9.7 0.0 0.00 0.00 0.00 28 1013.0
20260506114823 26 200 11.3 0.0 0.00 0.00 0.00 26 1013.0
20260506113323 26 200 11.3 0.0 0.00 0.00 0.00 26 1013.0
20260506111823 26 150 14.5 0.0 0.00 0.00 0.00 26 1013.0
20260506110323 26 150 14.5 0.0 0.00 0.00 0.00 26 1013.0
20260506104823 25 140 12.9 0.0 0.00 0.00 0.00 30 1013.0
20260506103323 25 140 12.9 0.0 0.00 0.00 0.00 30 1013.0
20260506101823 25 150 11.3 0.0 0.00 0.00 0.00 32 1014.0
20260506100323 25 150 11.3 0.0 0.00 0.00 0.00 32 1014.0
20260506094823 23 160 14.5 0.0 0.00 0.00 0.00 29 1014.0
20260506093323 23 160 14.5 0.0 0.00 0.00 0.00 29 1014.0
20260506091823 23 180 11.3 0.0 0.00 0.00 0.00 34 1014.0
20260506090323 23 180 11.3 0.0 0.00 0.00 0.00 34 1014.0
20260506084823 22 130 8.0 0.0 0.00 0.00 0.00 36 1014.0
20260506083323 22 130 8.0 0.0 0.00 0.00 0.00 36 1014.0
20260506081820 21 130 8.0 0.0 0.00 0.00 0.00 40 1014.0
20260506080323 21 130 8.0 0.0 0.00 0.00 0.00 40 1014.0
20260506073323 18 120 9.7 0.0 0.00 0.00 0.00 46 1014.0
20260506071823 17 130 9.7 0.0 0.00 0.00 0.00 49 1014.0
20260506070323 17 130 9.7 0.0 0.00 0.00 0.00 49 1014.0
20260506061823 15 120 14.5 0.0 0.00 0.00 0.00 51 1014.0
20260506060325 15 120 14.5 0.0 0.00 0.00 0.00 51 1014.0
20260506050337 12 110 14.5 0.0 0.00 0.00 0.00 55 1014.0
20260506044839 12 110 12.9 0.0 0.00 0.00 0.00 58 1014.0
20260506043327 12 110 12.9 0.0 0.00 0.00 0.00 58 1014.0
20260506041824 11 100 12.9 0.0 0.00 0.00 0.00 62 1014.0
20260506040323 11 100 12.9 0.0 0.00 0.00 0.00 62 1014.0
20260506034823 10 100 12.9 0.0 0.00 0.00 0.00 62 1014.0
20260506033323 10 100 12.9 0.0 0.00 0.00 0.00 62 1014.0
20260506031823 8 110 12.9 0.0 0.00 0.00 0.00 66 1014.0
20260506030322 8 110 12.9 0.0 0.00 0.00 0.00 66 1014.0
20260506024823 10 110 11.3 0.0 0.00 0.00 0.00 62 1013.0
20260506023323 10 110 11.3 0.0 0.00 0.00 0.00 62 1013.0
20260506021823 10 110 9.7 0.0 0.00 0.00 0.00 62 1013.0
20260506020323 10 110 9.7 0.0 0.00 0.00 0.00 62 1013.0
20260506014823 11 110 11.3 0.0 0.00 0.00 0.00 58 1013.0
20260506013323 11 110 11.3 0.0 0.00 0.00 0.00 58 1013.0
20260506011823 11 120 12.9 0.0 0.00 0.00 0.00 62 1013.0
20260506010323 11 120 12.9 0.0 0.00 0.00 0.00 62 1013.0
20260506004823 11 120 12.9 0.0 0.00 0.00 0.00 67 1013.0
20260506003441 11 120 12.9 0.0 0.00 0.00 0.00 67 1013.0
20260506001823 11 120 14.5 0.0 0.00 0.00 0.00 72 1013.0
20260506000324 11 120 14.5 0.0 0.00 0.00 0.00 72 1013.0
20260505234823 12 110 16.1 0.0 0.00 0.00 0.00 67 1013.0
20260505233322 12 110 16.1 0.0 0.00 0.00 0.00 67 1013.0
20260505231823 12 110 17.7 0.0 0.00 0.00 0.00 67 1013.0
20260505230323 12 110 17.7 0.0 0.00 0.00 0.00 67 1013.0
20260505224823 12 110 17.7 0.0 0.00 0.00 0.00 63 1013.0
20260505223323 12 110 17.7 0.0 0.00 0.00 0.00 63 1013.0
20260505221820 13 110 17.7 0.0 0.00 0.00 0.00 59 1013.0
20260505220323 13 110 17.7 0.0 0.00 0.00 0.00 59 1013.0
20260505214824 13 100 14.5 0.0 0.00 0.00 0.00 59 1013.0
20260505213323 13 100 14.5 0.0 0.00 0.00 0.00 59 1013.0
20260505211823 16 90 9.7 0.0 0.00 0.00 0.00 52 1013.0
20260505210323 16 90 9.7 0.0 0.00 0.00 0.00 52 1013.0
20260505204825 17 130 4.8 0.0 0.00 0.00 0.00 43 1013.0
20260505203322 17 130 4.8 0.0 0.00 0.00 0.00 43 1013.0
20260505201854 18 3.2 0.0 0.00 0.00 0.00 40 1013.0
20260505200323 18 3.2 0.0 0.00 0.00 0.00 40 1013.0
20260505194823 20 230 4.8 0.0 0.00 0.00 0.00 38 1012.0
20260505193323 20 230 4.8 0.0 0.00 0.00 0.00 38 1012.0
20260505191823 20 180 11.3 0.0 0.00 0.00 0.00 38 1012.0
20260505190322 20 180 11.3 0.0 0.00 0.00 0.00 38 1012.0
20260505184824 21 180 11.3 0.0 0.00 0.00 0.00 35 1012.0
20260505183323 21 180 11.3 0.0 0.00 0.00 0.00 35 1012.0
20260505181824 22 180 8.0 0.0 0.00 0.00 0.00 33 1012.0
20260505180323 22 180 8.0 0.0 0.00 0.00 0.00 33 1012.0
20260505174820 22 150 9.7 0.0 0.00 0.00 0.00 31 1012.0
20260505173323 22 150 9.7 0.0 0.00 0.00 0.00 31 1012.0
20260505171823 23 120 9.7 0.0 0.00 0.00 0.00 27 1012.0
20260505170323 23 120 9.7 0.0 0.00 0.00 0.00 27 1012.0
20260505164823 23 140 9.7 0.0 0.00 0.00 0.00 27 1012.0
20260505163323 23 140 9.7 0.0 0.00 0.00 0.00 27 1012.0
20260505161824 25 110 9.7 0.0 0.00 0.00 0.00 24 1012.0
20260505160323 25 110 9.7 0.0 0.00 0.00 0.00 24 1012.0